This is the latest recevied weather packets stored in our database for station/object F1ZFG-13. If no packets are shown the sender has not sent any weather packets the latest 10 day(s).
| Time | Temp. | Humidity | Pressure | Rain* | Wind** | Luminosity | Snow |
|---|---|---|---|---|---|---|---|
| 1777489182 | 18.89° C | 67% | 1013.8 hPa | 0 mm | - | - | - |
| 1777485721 | 18.89° C | 67% | 1013.8 hPa | 0 mm | - | - | - |
| 1777482587 | 21.11° C | 52% | 1013.4 hPa | 0 mm | - | - | - |
| 1777479711 | 21.67° C | 48% | 1013 hPa | 0 mm | - | - | - |
| 1777476402 | 22.22° C | 46% | 1013.1 hPa | 0 mm | - | - | - |
| 1777473201 | 22.22° C | 46% | 1013.7 hPa | 0 mm | - | - | - |
| 1777470298 | 21.67° C | 48% | 1014.2 hPa | 0 mm | - | - | - |
| 1777466825 | 20.56° C | 54% | 1014.3 hPa | 0 mm | - | - | - |
| 1777463717 | 18.89° C | 61% | 1015 hPa | 0 mm | - | - | - |
| 1777460586 | 18.89° C | 61% | 1015 hPa | 0 mm | - | - | - |
| 1777457472 | 17.78° C | 68% | 1015.4 hPa | 0 mm | - | - | - |
| 1777454112 | 15.56° C | 77% | 1015.8 hPa | 0 mm | - | - | - |
| 1777450991 | 13.89° C | 88% | 1015.8 hPa | 0 mm | - | - | - |
| 1777447622 | 12.22° C | 96% | 1015.7 hPa | 0 mm | - | - | - |
| 1777444626 | 11.11° C | 98% | 1015.2 hPa | 0 mm | - | - | - |
| 1777441321 | 10° C | 99% | 1014.9 hPa | 0 mm | - | - | - |
| 1777438342 | 10° C | 10% | 1014.6 hPa | 0 mm | - | - | - |
| 1777435367 | 10° C | 10% | 1014.6 hPa | 0 mm | - | - | - |
| 1777432161 | 10.56° C | 99% | 1014.6 hPa | 0 mm | - | - | - |
| 1777429011 | 10.56° C | 98% | 1014.6 hPa | 0 mm | - | - | - |
| 1777425551 | 11.11° C | 97% | 1014.8 hPa | 0 mm | - | - | - |
| 1777422642 | 12.22° C | 97% | 1014.5 hPa | 0 mm | - | - | - |
| 1777419537 | 12.22° C | 97% | 1014.6 hPa | 0 mm | - | - | - |
| 1777415976 | 13.33° C | 96% | 1014.7 hPa | 0 mm | - | - | - |
| 1777412451 | 13.33° C | 95% | 1014.9 hPa | 0 mm | - | - | - |
* Rain latest hour (hover to see other rain measurements)
** Current wind speed in m/s (hover to see current wind gust speed)